STARLINK-32351, 61529

Orbit data source: Space-Track

STARLINK-32351, 61529 is a payload satellite owned by SpaceX/Seattle (US) in LEO that was launched on Tue, 15 Oct 2024 UTC via an FALCON 9 launch vehicle from the Air Force Eastern Test Range (AFETR). Payload-class satellites include a variety of spacecraft equipped with specific instruments for various scientific and technological missions. These include communications satellites like Starlink; space stations such as the ISS; scientific satellites like the Hubble; Earth observation satellites from companies like Planet Labs, Umbra, and HawkEye 360; GPS; miniature CubeSats for education and research; and military/defense satellites.

Loading next visibility...
Identifier
61529, 2024-183W
Orbit
LEO
Country
Flag of USUS
Related business
Manufacturer
SpaceX/Seattle
Mission
Operational Commercial Communications
Bus & Motor
STARLINK V2M, Unknown motor
Mass
730 kg wet, ~700 kg dry
Launch date (UTC)
2024-10-15 (2 years ago)
Launch vehicle
FALCON 9
Launch site
Air Force Eastern Test Range (AFETR)
Object type
Payload
Rocket body
Debris
Shape & HBR
Box + 2 Pan, 17.7 m
Radar Cross Section
33.884 m², Large (>1 m²)

Expand to show TLE details & history
Last TLE update: 13 hours ago

TLE from 13 hours ago
0 STARLINK-32351
1 61529U 24183W   26171.30194453 -.00000075  00000-0  95988-5 0  9994
2 61529  53.1628  22.9348 0001298 105.0949 255.0195 15.30188385 95403
Epoch: 2026-06-20T07:14Z
TLE epoch observation values (Epoch: 2026-06-20T07:14:48.007Z)
Latitude
-0.00005°
Longitude
5.71621°
Altitude
476.38 km
Speed
7.629 km/s
True Right ascension
01h 31m 44s
True Declination
0° 00' 00"
Sunlit
Object was in daylight at epoch
Visualization orbit readout
Latitude
Unknown
Longitude
Unknown
Altitude
Unknown
Speed
Unknown
Apparent Right ascension
Unknown
Apparent Declination
Unknown
Sunlit
N/A
Visualization observer readout
Local Sidereal Time
07:24:01
Azimuth
Unknown
Elevation
Unknown
Doppler factor
Unknown
Orbital elements
Apogee altitude
476.395 km
Perigee altitude
474.616 km
Semi-major axis
6,853.643 km
Eccentricity
0.00013
Inclination
53.1628°
RAAN
22.9348°
Arg. of periapsis
105.0949°
True anomaly
255.00513°
Mean anomaly
255.0195°
Eccentric anomaly
255.01232°
Mean motion
3.82526 °/min
Orbital period
94.11 mins
BSTAR
0.0000095988
Loading maneuver chart data...
Computing Atmospheric mass density...
Loading historical data...
Loading historical data...
Loading historical data...
Loading historical data...
Loading historical data...
Loading historical data...
Loading historical data...

Documentation

Showing up to 5 results
|